Location: Launois
(49.6535°N, 4.5395°E)
Time: 05:29:15
(UTC+00:00)

Cosmos 1140 Rocket - Pass Details

Date: 23 May 2024
Orbit: 742 x 764 km, 74.1° (Epoch: 19 June)

Event Time Altitude Azimuth Distance (km) Brightness Sun altitude
Exits shadow 00:22:31 26° 235° (SW) 1,476 4.6 -19.0°
Maximum altitude 00:25:14 51° 299° (WNW) 956 4.1 -18.9°
Drops below altitude 10° 00:30:21 10° 16° (NNE) 2,306 7.2 -18.8°
Sets 00:32:48 0° 21° (NNE) 3,233 8.4 -18.7°
